DELTA 1 DEB, 7037

Orbit data source: Space-Track

DELTA 1 DEB, 7037 is space debris in LEO originally from a launch on Tue, 06 Nov 1973 UTC launched from the Air Force Western Test Range (AFWTR). Debris objects in space refer to the collection of defunct objects orbiting the Earth. Examples of debris include non-operational satellites, rocket bodies, and fragments generated from explosions, collisions, or faulty payload assembly.

Loading next visibility...
Identifier
7037, 1973-086AD
Orbit
LEO
Last TLE update
1 day ago
Origin
Manufacturer
Unknown
Mission
Spacecraft
Bus & Motor
Unknown
Mass
Unknown
Launch date (UTC)
1973-11-06 (52 years ago)
Launch vehicle
Unknown
Launch site
Air Force Western Test Range (AFWTR)
Object type
Payload
Rocket body
Debris
Shape & HBR
Unknown
Radar Cross Section
Medium (>0.1 m² and <1 m²)

Expand to show TLE details & history

TLE from 1 day ago
0 DELTA 1 DEB
1 07037U 73086AD  25125.81919605 -.00000039  00000-0 -19974-4 0  9993
2 07037 102.0488 206.9993 0326616 147.2702 330.9467 11.86603043229688
Epoch: 2025-05-05T19:39Z
Definitive object data (Epoch: 2025-05-05T19:39:38.538Z)
Latitude
61.31171°
Longitude
-108.99951°
Altitude
1,521.945 km
Speed
7.21 km/s
True Right ascension
03h 19m 21s
True Declination
61° 10' 51"
Sunlit
Object was in daylight at TLE epoch
Visualization TLE readout
Latitude
-45.3599°
Longitude
-143.10762°
Altitude
1,710.257 km
Speed
7.042 km/s
Apparent Right ascension
23h 55m 16s
Apparent Declination
-44° 16' 24"
Sunlit
Object is in daylight
Visualization observer readout
Local Sidereal Time
10:36:15
Azimuth
246.942° WSW
Elevation
-74.752°
Doppler factor
1
Orbital elements
Apogee altitude
2,004.17 km
Perigee altitude
1,473.929 km
Semi-major axis
8,117.186 km
Eccentricity
0.0326616
Inclination
102.0488°
RAAN
206.9993°
Arg. of periapsis
147.2702°
True anomaly
329.06231°
Mean anomaly
330.9467°
Eccentric anomaly
330.01133°
Mean motion
2.9678 °/min
BSTAR
-0.000019974
Orbital period
121.3 mins
Loading maneuver chart data...
Loading SW <> Apogee altitude chart data...
Loading historical data...
Loading historical data...
Loading historical data...
Loading historical data...
Loading historical data...
Loading historical data...
Loading historical data...

DELTA 1 DEB Visibility forecast

Observer location: undefined°, undefined°

Span
Click to sort rows by Start time (UTC) header in descending order
Start Az.
Max El. time (UTC)
Max El. Az.
Max El.
End time (UTC)
End Az.
15 mins2025-05-07 03:31:56.147Z112.413° ESE2025-05-07 03:39:56.147Z55.7° ENE28.41°2025-05-07 03:46:56.147Z1.708° NNE
18 mins2025-05-07 05:28:56.147Z173.413° S2025-05-07 05:37:56.147Z247.587° W42.797°2025-05-07 05:46:56.147Z336.474° NNW
5 mins2025-05-07 07:35:56.147Z256.518° W2025-05-07 07:37:56.147Z268.706° W12.128°2025-05-07 07:40:56.147Z287.467° WNW
15 mins2025-05-07 18:11:56.147Z21.451° NNE2025-05-07 18:18:56.147Z83.82° E44.059°2025-05-07 18:26:56.147Z192.328° SSW
10 mins2025-05-07 20:12:56.147Z346.304° N2025-05-07 20:16:56.147Z312.278° NW22.091°2025-05-07 20:22:56.147Z261.757° W
|